Previsão horária em Abalos

Hoje, 25 Janeiro, Segunda-feira

Tempo Temperatura Precipitação Vento Pressão Humidade
00:00 +7°C° 0 mm 3 m/s 711 mmHg 83%
01:00 +7°C° 0.1 mm 2 m/s 710 mmHg 85%
02:00 +7°C° 0.1 mm 2 m/s 710 mmHg 86%
03:00 +8°C° 0.1 mm 1 m/s 709 mmHg 87%
04:00 +8°C° 1.3 mm 1 m/s 709 mmHg 90%
05:00 +8°C° 1.3 mm 1 m/s 708 mmHg 93%
06:00 +8°C° 0 mm 1 m/s 708 mmHg 96%
07:00 +8°C° 3.2 mm 1 m/s 708 mmHg 96%
08:00 +8°C° 3.2 mm 1 m/s 708 mmHg 97%
09:00 +7°C° 3.2 mm 1 m/s 708 mmHg 98%
10:00 +8°C° 2.1 mm 1 m/s 708 mmHg 97%
11:00 +8°C° 2.1 mm 1 m/s 709 mmHg 96%
12:00 +8°C° 0 mm 1 m/s 710 mmHg 94%
13:00 +8°C° 0.4 mm 1 m/s 710 mmHg 91%
14:00 +8°C° 0.4 mm 2 m/s 710 mmHg 89%
15:00 +8°C° 0.4 mm 2 m/s 711 mmHg 86%
16:00 +8°C° 0 mm 2 m/s 712 mmHg 88%
17:00 +7°C° 0 mm 2 m/s 712 mmHg 90%
18:00 +6°C° 0 mm 2 m/s 713 mmHg 92%
19:00 +7°C° 0 mm 1 m/s 714 mmHg 92%
20:00 +7°C° 0 mm 1 m/s 715 mmHg 93%
21:00 +6°C° 0 mm 1 m/s 715 mmHg 93%
22:00 +6°C° 0 mm 1 m/s 716 mmHg 93%
23:00 +6°C° 0 mm 1 m/s 716 mmHg 93%

Amanhã, 26 Janeiro, Terça-feira

Tempo Temperatura Precipitação Vento Pressão Humidade
00:00 +4°C° 0 mm 0 m/s 716 mmHg 92%
01:00 +4°C° 0 mm 0 m/s 716 mmHg 92%
02:00 +5°C° 0 mm 1 m/s 716 mmHg 91%
03:00 +5°C° 0 mm 1 m/s 716 mmHg 91%
04:00 +5°C° 0 mm 1 m/s 716 mmHg 90%
05:00 +5°C° 0 mm 1 m/s 716 mmHg 90%
06:00 +5°C° 0 mm 1 m/s 716 mmHg 90%
07:00 +6°C° 0 mm 1 m/s 717 mmHg 89%
08:00 +7°C° 0 mm 1 m/s 717 mmHg 88%
09:00 +8°C° 0 mm 1 m/s 717 mmHg 87%
10:00 +9°C° 0.1 mm 1 m/s 717 mmHg 88%
11:00 +10°C° 0.1 mm 1 m/s 717 mmHg 88%
12:00 +10°C° 0.1 mm 1 m/s 718 mmHg 88%
13:00 +10°C° 0.1 mm 2 m/s 717 mmHg 88%
14:00 +12°C° 0.1 mm 2 m/s 717 mmHg 88%
15:00 +12°C° 0.1 mm 2 m/s 717 mmHg 88%
16:00 +12°C° 0.2 mm 2 m/s 717 mmHg 90%
17:00 +10°C° 0.2 mm 2 m/s 717 mmHg 91%
18:00 +10°C° 0.2 mm 2 m/s 718 mmHg 92%
19:00 +10°C° 0.2 mm 2 m/s 718 mmHg 92%
20:00 +10°C° 0.2 mm 2 m/s 718 mmHg 93%
21:00 +10°C° 0.2 mm 2 m/s 718 mmHg 93%
22:00 +10°C° 0.1 mm 2 m/s 719 mmHg 93%
23:00 +11°C° 0.1 mm 1 m/s 719 mmHg 93%

Depois de amanhã, 27 Janeiro, Quarta-feira

Tempo Temperatura Precipitação Vento Pressão Humidade
00:00 +10°C° 0.1 mm 1 m/s 719 mmHg 93%
01:00 +10°C° 0.1 mm 1 m/s 719 mmHg 92%
02:00 +10°C° 0.1 mm 1 m/s 719 mmHg 92%
03:00 +9°C° 0.1 mm 2 m/s 719 mmHg 92%
04:00 +9°C° 0.1 mm 2 m/s 719 mmHg 92%
05:00 +9°C° 0.1 mm 2 m/s 719 mmHg 92%
06:00 +10°C° 0.1 mm 2 m/s 719 mmHg 93%
07:00 +10°C° 0.1 mm 2 m/s 719 mmHg 93%
08:00 +11°C° 0.1 mm 1 m/s 719 mmHg 93%
09:00 +11°C° 0.1 mm 1 m/s 720 mmHg 93%
10:00 +12°C° 0.2 mm 1 m/s 720 mmHg 91%
11:00 +12°C° 0.2 mm 1 m/s 720 mmHg 90%
12:00 +13°C° 0.2 mm 2 m/s 720 mmHg 89%
13:00 +13°C° 0.1 mm 1 m/s 720 mmHg 86%
14:00 +14°C° 0.1 mm 1 m/s 720 mmHg 84%
15:00 +15°C° 0.1 mm 1 m/s 720 mmHg 82%
16:00 +14°C° 0 mm 1 m/s 720 mmHg 85%
17:00 +13°C° 0 mm 1 m/s 720 mmHg 88%
18:00 +12°C° 0 mm 1 m/s 720 mmHg 91%
19:00 +11°C° 0 mm 1 m/s 720 mmHg 90%
20:00 +11°C° 0 mm 1 m/s 720 mmHg 90%
21:00 +11°C° 0 mm 1 m/s 720 mmHg 89%
22:00 +11°C° 0 mm 1 m/s 720 mmHg 89%
23:00 +11°C° 0 mm 1 m/s 720 mmHg 89%

28 Janeiro, Quinta-feira

Tempo Temperatura Precipitação Vento Pressão Humidade
00:00 +9°C° 0 mm 2 m/s 720 mmHg 89%
01:00 +9°C° 0 mm 2 m/s 720 mmHg 89%
02:00 +9°C° 0 mm 2 m/s 719 mmHg 90%
03:00 +9°C° 0 mm 2 m/s 719 mmHg 90%
04:00 +9°C° 0 mm 2 m/s 719 mmHg 90%
05:00 +9°C° 0 mm 2 m/s 719 mmHg 90%
06:00 +9°C° 0 mm 2 m/s 719 mmHg 90%
07:00 +10°C° 0 mm 2 m/s 719 mmHg 89%
08:00 +12°C° 0 mm 2 m/s 719 mmHg 88%
09:00 +12°C° 0 mm 2 m/s 719 mmHg 87%
10:00 +13°C° 0 mm 3 m/s 719 mmHg 81%
11:00 +14°C° 0 mm 3 m/s 720 mmHg 76%
12:00 +17°C° 0 mm 4 m/s 720 mmHg 70%
13:00 +17°C° 0 mm 4 m/s 719 mmHg 70%
14:00 +17°C° 0 mm 4 m/s 719 mmHg 69%
15:00 +17°C° 0 mm 4 m/s 718 mmHg 69%
16:00 +16°C° 0 mm 3 m/s 718 mmHg 74%
17:00 +13°C° 0 mm 3 m/s 718 mmHg 78%
18:00 +13°C° 0 mm 2 m/s 718 mmHg 83%
19:00 +13°C° 0 mm 2 m/s 718 mmHg 85%
20:00 +13°C° 0 mm 2 m/s 718 mmHg 86%
21:00 +13°C° 0 mm 2 m/s 718 mmHg 87%
22:00 +12°C° 0 mm 2 m/s 718 mmHg 87%
23:00 +12°C° 0 mm 2 m/s 718 mmHg 87%

29 Janeiro, Sexta-feira

Tempo Temperatura Precipitação Vento Pressão Humidade
00:00 +12°C° 0 mm 2 m/s 718 mmHg 87%
01:00 +12°C° 0 mm 2 m/s 718 mmHg 88%
02:00 +12°C° 0 mm 2 m/s 717 mmHg 88%
03:00 +10°C° 0 mm 2 m/s 716 mmHg 89%
04:00 +12°C° 0 mm 2 m/s 716 mmHg 88%
05:00 +12°C° 0 mm 2 m/s 716 mmHg 88%
06:00 +12°C° 0 mm 2 m/s 716 mmHg 87%
07:00 +12°C° 0 mm 2 m/s 716 mmHg 86%
08:00 +13°C° 0 mm 2 m/s 716 mmHg 85%
09:00 +13°C° 0 mm 2 m/s 716 mmHg 83%
10:00 +13°C° 0 mm 3 m/s 716 mmHg 79%
11:00 +15°C° 0 mm 4 m/s 716 mmHg 74%
12:00 +16°C° 0 mm 5 m/s 716 mmHg 69%
13:00 +16°C° 0 mm 5 m/s 716 mmHg 68%
14:00 +16°C° 0 mm 5 m/s 715 mmHg 68%
15:00 +16°C° 0 mm 5 m/s 715 mmHg 67%
16:00 +15°C° 0 mm 4 m/s 715 mmHg 72%
17:00 +14°C° 0 mm 3 m/s 714 mmHg 77%
18:00 +13°C° 0 mm 2 m/s 714 mmHg 82%
19:00 +13°C° 0 mm 2 m/s 713 mmHg 83%
20:00 +13°C° 0 mm 2 m/s 713 mmHg 84%
21:00 +13°C° 0 mm 2 m/s 713 mmHg 85%
22:00 +13°C° 0 mm 2 m/s 712 mmHg 85%
23:00 +13°C° 0 mm 2 m/s 712 mmHg 85%

30 Janeiro, Sábado

Tempo Temperatura Precipitação Vento Pressão Humidade
00:00 +12°C° 0 mm 2 m/s 711 mmHg 85%
01:00 +12°C° 0.6 mm 2 m/s 710 mmHg 87%
02:00 +12°C° 0.6 mm 2 m/s 709 mmHg 89%
03:00 +10°C° 0.6 mm 2 m/s 708 mmHg 90%
04:00 +10°C° 0.5 mm 3 m/s 708 mmHg 88%
05:00 +10°C° 0.5 mm 4 m/s 708 mmHg 85%
06:00 +10°C° 0.5 mm 4 m/s 708 mmHg 82%
07:00 +10°C° 0.5 mm 4 m/s 708 mmHg 83%
08:00 +10°C° 0.5 mm 4 m/s 709 mmHg 83%
09:00 +10°C° 0.5 mm 4 m/s 709 mmHg 83%
10:00 +11°C° 0.2 mm 4 m/s 710 mmHg 79%
11:00 +12°C° 0.2 mm 4 m/s 710 mmHg 75%
12:00 +13°C° 0.2 mm 4 m/s 711 mmHg 71%
13:00 +12°C° 0.1 mm 4 m/s 711 mmHg 74%
14:00 +12°C° 0.1 mm 3 m/s 711 mmHg 77%
15:00 +12°C° 0.1 mm 3 m/s 711 mmHg 79%
16:00 +12°C° 0 mm 2 m/s 712 mmHg 82%
17:00 +10°C° 0 mm 2 m/s 713 mmHg 85%
18:00 +10°C° 0 mm 2 m/s 714 mmHg 88%
19:00 +10°C° 0 mm 1 m/s 714 mmHg 89%
20:00 +10°C° 0 mm 1 m/s 714 mmHg 90%
21:00 +9°C° 0 mm 1 m/s 715 mmHg 91%
22:00 +9°C° 0 mm 1 m/s 715 mmHg 92%
23:00 +9°C° 0 mm 1 m/s 715 mmHg 92%
Mostrar mais